Location: Innsbruck
(47.2667°N, 11.4000°E)
Time: 22:53:02
(UTC+00:00)

Daily predictions for brighter satellites

Satellite Brightness Start Highest point End
(mag) Time Altitude Azimuth Time Altitude Azimuth Time Altitude Azimuth
BREEZE-M DEB (TANK) 4.1 17:01:14 10° SSW 17:05:10 50° SE 17:18:43 10° ENE
PAYLOAD B 4.3 17:08:13 10° SE 17:13:35 56° ENE 17:18:58 10° N
Cosmos 1634 Rocket 4.3 17:08:14 10° NNW 17:14:25 77° W 17:20:36 10° S
CZ-4B DEB 4.2 17:09:31 10° SSE 17:14:57 75° ENE 17:20:27 10° NNW
BREEZE-M DEB (TANK) 1.9 17:16:59 10° WNW 17:19:07 73° SSW 17:22:06 10° ESE
Cosmos 1674 3.8 17:16:35 10° NNW 17:20:13 48° W 17:23:47 10° S
Cosmos 1975 4.3 17:20:55 10° SSW 17:24:46 42° WNW 17:28:38 10° N
COSMO-SKYMED 1 2.5 17:21:25 10° NNE 17:25:47 74° ESE 17:30:06 10° S
Cosmos 2263 Rocket 2.2 17:20:16 10° NNW 17:26:00 78° ENE 17:31:42 10° SSE
Cosmos 1437 Rocket 3.8 17:27:10 10° SE 17:30:03 21° E 17:32:57 10° NE
Spot 1 4.1 17:27:11 10° NNE 17:31:16 48° E 17:35:12 10° S
ASTEX 1 3.4 17:26:45 10° N 17:31:46 73° E 17:36:45 10° S
HJ-1C 4.0 17:29:19 10° SE 17:32:06 31° ENE 17:34:55 10° N
Cosmos 1741 Rocket 4.0 17:27:33 10° SSW 17:32:50 82° ESE 17:38:07 10° NNE
USA 267 3.3 17:29:04 10° SE 17:35:39 87° SW 17:42:15 10° NW
Cosmos 1626 4.3 17:33:30 10° NNW 17:36:43 30° W 17:39:54 10° SSW
Cosmos 1814 Rocket 4.0 17:32:16 10° NNW 17:37:30 61° ENE 17:42:37 10° SE
SL-4 R/B 2.3 17:33:31 10° WNW 17:37:57 87° SSW 17:42:26 11° ESE
Cosmos 2084 Rocket 4.2 17:37:14 10° NNW 17:40:40 30° NE 17:43:22 15° E
Cosmos 1805 3.4 17:37:36 10° SSW 17:41:28 76° W 17:45:22 10° N
Cosmos 1242 Rocket 3.5 17:39:20 10° SSW 17:42:48 50° WNW 17:46:15 10° N
Cosmos 2227 4.2 17:37:41 10° NNW 17:43:18 65° ENE 17:48:53 10° SE
IRIDIUM 114 4.4 17:39:19 10° SSE 17:44:23 56° E 17:49:30 10° NNE
Okean-O 4.1 17:42:55 14° E 17:45:06 19° ENE 17:48:12 10° NNE
CZ-4 R/B 1.8 17:43:42 10° SE 17:47:40 45° ENE 17:51:40 10° N
ISS -2.1 17:44:43 10° W 17:47:44 31° SW 17:50:46 10° SSE
Cosmos 1697 Rocket 4.2 17:43:03 10° WSW 17:48:14 37° NW 17:53:27 10° NNE
Meteor 1-12 Rocket 4.4 17:44:42 10° S 17:50:33 57° E 17:56:27 10° NNE
BREEZE M DEB (TANK) 3.7 17:44:19 10° SSW 17:51:00 29° SSE 17:53:03 17° ESE
Cosmos 1908 Rocket 3.7 17:48:56 10° S 17:53:07 50° E 17:57:18 10° NNE
IRIDIUM 103 4.3 17:48:20 10° S 17:53:31 67° E 17:58:42 10° N
OBJECT-B 2.2 17:54:14 15° NE 17:54:14 15° NE 17:55:16 10° NNE
Meteor 2-21 4.4 17:47:39 10° S 17:53:40 78° E 17:59:44 10° NNE
MOS 1-B 4.4 17:47:53 10° SSE 17:53:42 88° WSW 17:59:34 10° NNW
SL-14 R/B 3.9 17:50:11 10° NNW 17:54:07 61° W 17:58:03 10° S
Cosmos 1733 4.4 17:51:25 10° SSW 17:55:02 45° WNW 17:58:39 10° N
Cosmos 2360 Rocket 3.3 17:51:20 10° SE 17:55:22 20° E 17:59:23 10° NE
Cosmos 1766 3.2 17:57:23 10° S 18:01:18 87° E 18:05:16 10° N
Cosmos 1782 Rocket 4.1 17:57:29 10° SSE 18:01:22 33° E 18:05:18 10° NNE
Cosmos 1674 Rocket 4.1 17:58:59 10° NNW 18:03:21 64° W 18:07:44 10° S
NOSS 7 (E) 4.5 18:01:57 10° NW 18:05:12 72° NE 18:07:50 20° SE
YAOGAN 1 2.6 18:01:36 10° SSE 18:05:55 85° WSW 18:10:16 10° NNW
Cosmos 1025 Rocket 3.8 18:02:09 10° N 18:06:02 32° ENE 18:07:57 22° ESE
Cosmos 2026 Rocket 4.2 18:01:46 10° SSE 18:07:23 42° E 18:13:02 10° NNE
Cosmos 968 Rocket 3.5 18:02:54 10° S 18:08:04 61° ESE 18:13:14 10° NNE
Okean O Rocket 1.5 18:05:23 10° SSE 18:09:45 87° ENE 18:14:10 10° NNW
IRIDIUM 106 4.3 18:06:34 10° S 18:11:47 86° W 18:17:03 10° N
Lacrosse 4 Rocket 2.1 18:09:20 10° S 18:12:56 31° ESE 18:13:56 27° E
Nadezhda 4 Rocket 4.0 18:08:52 10° S 18:15:12 89° W 18:21:34 10° N
Meteor 2-5 Rocket 3.6 18:10:16 10° N 18:15:48 67° ENE 18:21:19 10° SSE
Meteor 1-15 Rocket 4.1 18:11:25 10° S 18:16:58 77° E 18:22:33 10° NNE
CSL-04 Rocket 4.0 18:13:27 19° SE 18:17:00 44° ENE 18:22:08 10° N
Cosmos 2285 Rocket 4.2 18:16:04 10° NNW 18:22:25 74° WSW 18:28:46 10° SSE
USA 186 2.2 18:22:41 42° E 18:22:51 42° ENE 18:26:03 10° N
Cosmos 1726 3.7 18:20:11 10° SW 18:23:34 36° WNW 18:27:00 10° N
Cosmos 2322 Rocket 2.3 18:18:29 10° S 18:23:57 50° ESE 18:29:27 10° NE
Cosmos 2237 4.3 18:19:03 10° S 18:24:33 52° ESE 18:30:05 10° NE
Landsat 7 4.5 18:25:23 31° E 18:26:21 34° ENE 18:30:37 10° N
Cosmos 1470 2.5 18:24:18 10° S 18:28:07 72° E 18:31:57 10° NNE
CZ-4B R/B 4.0 18:23:04 10° S 18:28:19 53° W 18:33:42 10° NNW
Cosmos 1980 Rocket 3.8 18:25:15 10° WSW 18:30:21 35° NW 18:35:29 10° NNE
Cosmos 1975 Rocket 3.0 18:26:49 10° N 18:31:12 60° ENE 18:33:09 31° SSE
NOSS 3-3 (A) 4.4 18:26:47 10° S 18:31:39 32° ESE 18:32:26 31° E
NOSS 3-3 (C) 4.4 18:26:54 10° S 18:31:46 32° ESE 18:32:21 31° ESE
CRYOSAT 2 4.3 18:34:18 18° SSE 18:37:52 64° E 18:42:44 10° N
Cosmos 2292 Rocket 3.8 18:33:11 10° SSW 18:38:20 73° W 18:42:16 10° N
USA 215 3.9 18:36:54 11° NE 18:43:00 52° NNW 18:49:17 10° W
IRS-1C Rocket 4.0 18:43:42 34° SE 18:45:54 65° ENE 18:51:07 10° N
Cosmos 1844 Rocket 2.6 18:45:06 10° NNW 18:50:49 79° ENE 18:52:59 40° SE
SL-16 R/B 2.4 18:48:35 10° SSW 18:54:14 73° WNW 18:59:56 10° NNE
Landsat 5 3.5 18:51:15 10° NNE 18:55:47 87° ESE 19:00:12 10° SSW
Cosmos 1092 Rocket 4.1 18:50:26 10° SSW 18:56:44 77° W 19:03:02 10° N
Resurs 01 Rocket 2.8 19:01:19 30° NNE 19:01:19 30° NNE 19:04:05 10° N
Cosmos 836 Rocket 4.4 18:56:48 10° NNW 19:02:09 88° ENE 19:03:34 51° SSE
SJ-6B 2.9 19:02:07 64° SW 19:02:22 67° W 19:06:10 10° NNW
H-2A R/B 3.8 19:07:12 27° NNE 19:07:12 27° NNE 19:09:11 10° N
Cosmos 2278 Rocket 3.8 19:01:40 10° N 19:05:41 20° NE 19:05:41 20° NE
Meteor 1-24 Rocket 4.4 19:05:54 10° NNW 19:11:01 49° W 19:16:10 10° SSW
Resurs 1-3 3.5 19:11:27 85° WSW 19:11:27 85° WSW 19:15:51 10° NNW
SL-4 R/B 4.0 19:13:26 10° W 19:17:06 24° SW 19:17:51 23° SSW
Cosmos 2084 Rocket 4.5 19:16:30 10° NW 19:19:51 36° WSW 19:19:51 36° WSW
Okean-O 3.2 19:20:29 49° SW 19:21:11 55° W 19:25:33 10° NNW
CZ-4 R/B 4.1 19:19:48 10° SW 19:22:48 19° W 19:25:49 10° NW
OBJECT-B 3.9 19:24:56 11° NW 19:24:56 11° NW 19:25:04 10° NW
Cosmos 1486 Rocket 4.0 19:18:12 10° SSW 19:23:31 79° WNW 19:28:54 10° NNE
IGS 5A 4.5 19:24:37 40° WSW 19:25:09 42° W 19:29:06 10° NNW
Cosmos 1844 3.8 19:19:45 10° NNW 19:25:17 69° WSW 19:26:13 58° SSW
DNEPR-1 R/B 4.2 19:23:19 10° SW 19:28:03 69° NW 19:30:36 32° NNE
S3M 3.9 19:24:04 10° N 19:30:10 70° ENE 19:30:10 70° ENE
Cosmos 1300 Rocket 4.3 19:30:15 48° W 19:30:41 50° WNW 19:34:58 10° N
Cosmos 773 Rocket 4.2 19:26:26 10° NNW 19:31:00 63° N 19:31:00 63° N
Meteor 1-21 Rocket 4.4 19:26:53 10° N 19:31:34 59° NNE 19:31:34 59° NNE
Cosmos 2360 Rocket 2.4 19:33:09 10° SW 19:38:47 69° WNW 19:44:26 10° NNE
Lacrosse 4 Rocket 3.3 19:47:47 10° WSW 19:50:17 27° W 19:50:17 27° W
ATLAS 2AS CENTAUR R/B 3.9 19:54:52 10° NW 20:01:11 31° NNE 20:01:35 30° NNE
Cosmos 2322 Rocket 3.8 20:03:10 10° WSW 20:08:14 32° NW 20:13:20 10° NNE
NOSS 3-4 (A) 3.9 20:05:49 10° NW 20:12:04 74° N 20:12:04 74° N
NOSS 3-4 (C) 3.9 20:05:56 10° NW 20:12:10 73° N 20:12:10 73° N
USA 215 4.3 20:24:15 36° NNE 20:25:16 38° N 20:31:11 10° WNW
USA 281 4.0 20:27:40 43° N 20:27:40 43° N 20:32:14 10° NNW
Resurs 01 Rocket 4.3 20:38:52 17° NW 20:38:52 17° NW 20:40:14 10° NW
Terra 4.5 20:42:43 14° N 20:42:43 14° N 20:43:23 10° N
Cosmos 1943 Rocket 4.3 20:37:10 10° NNW 20:38:59 19° N 20:38:59 19° N
Cosmos 2278 Rocket 4.0 20:45:01 10° NNW 20:47:32 27° NNW 20:47:32 27° NNW
ATLAS 2AS CENTAUR R/B 4.4 21:45:58 10° NW 21:49:00 27° NW 21:49:00 27° NW
